Location: Seattle
(47.6064°N, 122.3308°W)
Time: 15:10:34
(UTC-08:00)

A-11 Canister half - Visible Passes

Search period start: 25 November 2020 00:00
Search period end: 05 December 2020 00:00
Orbit: 1525 x 1683 km, 47.3° (Epoch: 25 November)

Date Brightness Start Highest point End Pass type
(mag) Time Alt. Az. Time Alt. Az. Time Alt. Az.
25 Nov 11.5 04:10:56 10° SE 04:13:21 11° ESE 04:15:45 10° ESE visible
25 Nov 10.4 06:07:09 10° SSW 06:16:16 40° SE 06:25:14 10° ENE visible
26 Nov 11.6 03:51:19 10° ESE 03:51:48 10° ESE 03:52:17 10° ESE visible
26 Nov 10.4 05:45:37 10° SSW 05:54:39 39° SE 06:03:33 10° ENE visible
27 Nov 10.4 05:24:06 10° SSW 05:33:02 37° SE 05:41:51 10° ENE visible
28 Nov 10.4 05:02:37 10° SSW 05:11:26 36° SE 05:20:08 10° ENE visible
29 Nov 10.4 04:41:07 10° SSW 04:49:49 34° SE 04:58:26 10° ENE visible
29 Nov 9.5 06:43:51 10° WSW 06:53:56 72° SSE 07:03:48 10° ENE visible
30 Nov 10.4 04:19:38 10° SSW 04:28:12 33° SE 04:36:41 10° ENE visible
30 Nov 9.5 06:22:12 10° WSW 06:32:16 70° SSE 06:42:08 10° ENE visible
01 Dec 10.4 03:59:10 13° S 04:06:37 31° SE 04:14:58 10° ENE visible
01 Dec 9.4 06:00:33 10° SW 06:10:36 69° SSE 06:20:29 10° ENE visible
02 Dec 10.4 03:39:52 20° S 03:45:00 30° SE 03:53:13 10° ENE visible
02 Dec 9.4 05:38:54 10° SW 05:48:56 67° SSE 05:58:48 10° ENE visible
03 Dec 10.4 03:20:20 24° SSE 03:23:24 28° SE 03:31:28 10° E visible
03 Dec 9.4 05:18:42 15° SW 05:27:16 65° SSE 05:37:08 10° ENE visible
04 Dec 10.4 03:00:37 26° SE 03:01:48 27° SE 03:09:42 10° E visible
04 Dec 9.4 04:58:59 24° SW 05:05:37 64° SSE 05:15:28 10° ENE visible
04 Dec 9.3 07:00:25 10° W 07:10:38 89° S 07:20:36 10° E visible
